FW2344 Weather Reports


time (UTC)temp
C
wind
direction
speed
KPH
gust
KPH
rain 1hr
cm
rain 24hr
cm
rain mn
cm
humidity
%
barometer
mb
20260906003025 20 335 0.0 0.0 0.00 0.00 0.00 82 1013.5
20260906001533 20 335 0.0 0.0 0.00 0.00 0.00 82 1013.4
20260906000021 20 335 0.0 0.0 0.00 0.00 0.00 80 1013.4
20260905234517 21 335 0.0 0.0 0.00 0.00 0.00 79 1013.2
20260905233016 21 335 0.0 0.0 0.00 0.00 0.00 78 1013.0
20260905231527 21 335 0.0 0.0 0.00 0.00 0.00 77 1012.9
20260905230013 21 335 0.0 1.6 0.00 0.00 0.00 76 1012.8
20260905224511 21 203 0.0 1.6 0.00 0.00 0.00 77 1012.7
20260905223018 21 345 0.0 0.0 0.00 0.00 0.00 79 1012.6
20260905221508 22 345 0.0 1.6 0.00 0.00 0.00 76 1012.5
20260905220007 22 345 0.0 1.6 0.00 0.00 0.00 71 1012.5
20260905214504 23 345 0.0 3.2 0.00 0.00 0.00 67 1012.4
20260905213002 23 46 0.0 3.2 0.00 0.00 0.00 68 1012.2
20260905211504 24 333 0.0 3.2 0.00 0.00 0.00 68 1012.1
20260905210059 25 18 0.0 3.2 0.00 0.00 0.00 65 1011.9
20260905204602 26 282 0.0 4.8 0.00 0.00 0.00 62 1011.8
20260905203100 27 139 0.0 4.8 0.00 0.00 0.00 62 1011.8
20260905201602 26 269 0.0 3.2 0.00 0.00 0.00 62 1011.8
20260905200050 27 131 0.0 6.4 0.00 0.00 0.00 60 1011.6
20260905194548 27 350 0.0 4.8 0.00 0.00 0.00 62 1011.7
20260905193045 26 353 0.0 3.2 0.00 0.00 0.00 62 1011.7
20260905191543 27 356 1.6 6.4 0.00 0.00 0.00 58 1011.7
20260905190041 26 355 0.0 4.8 0.00 0.00 0.00 61 1011.7
20260905184545 27 17 0.0 4.8 0.00 0.00 0.00 62 1011.9
20260905183042 26 154 0.0 6.4 0.00 0.00 0.00 63 1011.9
20260905181532 26 34 0.0 4.8 0.00 0.00 0.00 61 1012.1
20260905180030 26 299 1.6 3.2 0.00 0.00 0.00 63 1012.1
20260905174528 26 13 0.0 3.2 0.00 0.00 0.00 64 1012.3
20260905173026 26 193 0.0 3.2 0.00 0.00 0.00 69 1012.4
20260905171522 25 36 0.0 4.8 0.00 0.00 0.00 65 1012.5
20260905170020 25 43 0.0 6.4 0.00 0.00 0.00 67 1012.6
20260905164517 25 28 0.0 6.4 0.00 0.00 0.00 69 1012.5
20260905163017 23 357 0.0 3.2 0.00 0.00 0.00 75 1012.4
20260905161514 23 6 0.0 4.8 0.00 0.00 0.00 69 1012.6
20260905160010 23 45 0.0 3.2 0.00 0.00 0.00 73 1012.5
20260905154507 24 34 0.0 4.8 0.00 0.00 0.00 72 1012.5
20260905153009 23 354 0.0 3.2 0.00 0.00 0.00 75 1012.6
20260905151503 22 326 0.0 6.4 0.00 0.00 0.00 74 1012.6
20260905150101 22 319 0.0 3.2 0.00 0.00 0.00 74 1012.7
20260905144557 22 332 0.0 3.2 0.00 0.00 0.00 78 1012.7
20260905143055 22 349 0.0 3.2 0.00 0.00 0.00 78 1012.9
20260905141552 22 331 0.0 4.8 0.00 0.00 0.00 78 1012.7
20260905140051 22 6 0.0 3.2 0.00 0.00 0.00 81 1012.5
20260905134550 21 112 0.0 1.6 0.00 0.00 0.00 84 1012.8
20260905133042 21 119 0.0 1.6 0.00 0.00 0.00 84 1012.8
20260905131543 21 164 0.0 3.2 0.00 0.00 0.00 85 1013.0
20260905130041 20 45 0.0 0.0 0.00 0.00 0.00 89 1013.1
20260905124531 19 45 0.0 0.0 0.00 0.00 0.00 91 1013.2
20260905123026 18 43 0.0 0.0 0.00 0.00 0.00 92 1013.4
20260905121520 17 43 0.0 0.0 0.00 0.00 0.00 93 1013.1
20260905120019 16 43 0.0 0.0 0.00 0.00 0.00 93 1013.2
20260905114514 16 44 0.0 0.0 0.00 0.00 0.00 95 1012.9
20260905113013 15 356 0.0 0.0 0.00 0.00 0.00 95 1012.7
20260905111513 15 356 0.0 0.0 0.00 0.00 0.00 95 1012.7
20260905110008 13 356 0.0 0.0 0.00 0.00 0.00 95 1012.5
20260905104505 13 356 0.0 0.0 0.00 0.00 0.00 95 1012.2
20260905103002 13 356 0.0 0.0 0.00 0.00 0.00 95 1012.0
20260905101501 13 356 0.0 0.0 0.00 0.00 0.00 95 1011.8
20260905100107 13 356 0.0 0.0 0.00 0.00 0.00 95 1011.7
20260905094555 14 356 0.0 0.0 0.00 0.00 0.00 95 1011.9
20260905093052 14 356 0.0 0.0 0.00 0.00 0.00 95 1011.9
20260905091548 14 356 0.0 0.0 0.00 0.00 0.00 95 1011.9
20260905090112 14 356 0.0 0.0 0.00 0.00 0.00 95 1011.6
20260905084544 14 356 0.0 0.0 0.00 0.00 0.00 95 1011.6
20260905083041 15 356 0.0 0.0 0.00 0.00 0.00 95 1011.6
20260905081538 15 356 0.0 0.0 0.00 0.00 0.00 95 1011.6
20260905080035 15 356 0.0 0.0 0.00 1.19 0.00 95 1011.7
20260905074532 15 356 0.0 0.0 0.00 1.19 0.00 95 1011.8
20260905073031 15 356 0.0 0.0 0.00 1.19 0.00 95 1011.8
20260905071528 15 356 0.0 0.0 0.00 1.19 0.00 95 1011.9
20260905070024 15 356 0.0 0.0 0.00 1.73 0.00 94 1011.8
20260905064522 15 356 0.0 0.0 0.00 1.73 0.00 94 1012.0
20260905063018 16 356 0.0 0.0 0.00 1.73 0.00 94 1012.1
20260905061527 16 356 0.0 0.0 0.00 1.73 0.00 94 1012.2
20260905060012 16 356 0.0 0.0 0.00 1.73 0.00 94 1012.3
20260905054507 16 356 0.0 0.0 0.00 1.73 0.00 94 1012.6
20260905053003 16 356 0.0 0.0 0.00 1.73 0.00 94 1012.6
20260905051600 17 356 0.0 0.0 0.00 1.73 0.00 94 1012.9
20260905050057 17 356 0.0 0.0 0.00 1.73 0.00 94 1012.8
20260905044555 17 356 0.0 0.0 0.00 1.73 0.00 94 1012.8
20260905043052 17 356 0.0 0.0 0.00 1.73 0.00 94 1012.9
20260905041552 17 356 0.0 0.0 0.00 1.73 0.00 94 1012.8
20260905040044 17 356 0.0 0.0 0.00 1.73 1.73 94 1012.9
20260905034548 17 356 0.0 0.0 0.00 1.73 1.73 94 1012.8
20260905033039 18 356 0.0 0.0 0.00 1.73 1.73 94 1012.8
20260905031538 18 356 0.0 0.0 0.00 1.73 1.73 94 1012.5
20260905030039 18 356 0.0 0.0 0.00 1.73 1.73 94 1012.5
20260905024532 18 356 0.0 0.0 0.00 1.73 1.73 93 1012.6
20260905023030 18 356 0.0 0.0 0.00 1.73 1.73 93 1012.5
20260905021534 18 356 0.0 0.0 0.00 1.73 1.73 93 1012.5
20260905020024 19 356 0.0 0.0 0.00 1.73 1.73 93 1012.5
20260905014520 19 356 0.0 0.0 0.00 1.73 1.73 93 1012.5
20260905013018 20 356 0.0 0.0 0.00 1.73 1.73 93 1012.6
20260905011515 20 356 0.0 1.6 0.00 1.73 1.73 92 1012.7
20260905010013 20 356 0.0 0.0 0.00 1.73 1.73 92 1012.6
20260905004511 20 356 0.0 0.0 0.00 1.73 1.73 91 1012.6